Regional Weather Roundup
Issued by NWS Kansas City/Pleasant Hill, MO

Home | Current Version | Previous Version | Graphics & Text | Print | Product List | Glossary Off
Versions: 1 2 3 4 5 6 7 8 9 10 11 12 13 14 15 16 17 18 19 20 21 22 23 24 25 26 27

000
ASUS43 KEAX 211410
RWREAX

WEATHER ROUNDUP FOR EASTERN KANSAS AND NORTHWEST MISSOURI
NATIONAL WEATHER SERVICE KANSAS CITY/PLEASANT HILL MO
900 AM CDT MON AUG 21 2017

KSZ040-057-103>105-MOZ028-029-037-043-211500-
...KANSAS CITY METROPOLITAN AREA...

CITY           SKY/WX    TMP DP  RH WIND       PRES   REMARKS
K.C. INTL      CLOUDY    80  74  81 S12       30.05F
K.C. DOWNTOWN  PTSUNNY   82  73  74 SW17      30.05F THUNDER
LEES SUMMIT    TSTM      78  73  84 SW12      30.08F
OLATHE - IXD   CLOUDY    76  72  87 S9        30.08S
OLATHE - OJC   CLOUDY    75  74  96 E7        30.08S THUNDER
LAWRENCE       PTSUNNY   81  75  82 S5        30.05F

$$

MOZ001>008-011>017-020>025-030>033-038>040-044>046-053-054-211500-
...NORTHERN AND CENTRAL MISSOURI...

CITY           SKY/WX    TMP DP  RH WIND       PRES   REMARKS
ST. JOSEPH     LGT RAIN  77  73  87 E5        30.06F
MOSBY          MOSUNNY   75  70  83 CALM      30.07S
WARRENSBURG    CLOUDY    77  70  78 S9        30.08F
WHITEMAN AFB   CLOUDY    80  80  99 SW12      30.07F
CLINTON        CLOUDY    77  73  88 S7        30.10F
SEDALIA        SUNNY     81  75  82 SW12      30.10F
WARSAW         NOT AVBL
CHILLICOTHE      N/A     75  69  81 E6        30.09F
KIRKSVILLE     PTSUNNY   75  68  78 NE7       30.11F

$$

MOZ041-047>049-056>058-063>065-088>090-097-211500-
...EASTERN AND SOUTHERN MISSOURI...

CITY           SKY/WX    TMP DP  RH WIND       PRES   REMARKS
ST. LOUIS INTL MOSUNNY   82  74  76 W8        30.11S
SPIRIT OF STL  SUNNY     83  75  77 SW10      30.09S HX  90
COLUMBIA       CLOUDY    78  73  84 S7        30.11F
JEFFERSON CITY CLOUDY    78  74  87 SE5       30.10F
ROLLA          SUNNY     80  74  81 SW12      30.15S
OSAGE BEACH    CLOUDY    79  73  82 SW6       30.13
SPRINGFIELD    SUNNY     78  75  90 S7        30.15R
BRANSON        MOSUNNY   81  73  78 CALM      30.17R
JOPLIN         SUNNY     82  73  74 S12       30.11S
WEST PLAINS    SUNNY     80  73  79 CALM      30.18R

$$

IAZ060-094-KSZ022-034>040-054-083-096-NEZ052-066-093-211500-
...KANSAS...SOUTHEAST NEBRASKA AND IOWA...

CITY           SKY/WX    TMP DP  RH WIND       PRES   REMARKS
TOPEKA         CLOUDY    82  75  79 S6        30.04S
MANHATTAN      CLOUDY    79  70  74 SW7       30.02S
EMPORIA        CLOUDY    78  73  84 S8        30.07R
CHANUTE        MOSUNNY   82  75  79 MISG      30.09S
WICHITA        CLOUDY    80  71  74 SE12      30.04F
OMAHA          CLOUDY    70  66  87 SE15      30.02F
LINCOLN        PTSUNNY   73  67  81 SE13G22   30.03S
FALLS CITY     PTSUNNY   74  71  91 E14       30.04S
LAMONI         CLOUDY    70  65  84 E10       30.11S
DES MOINES     LGT RAIN  69  64  84 E9        30.07F

$$





USA.gov is the U.S. government's official web portal to all federal, state and local government web resources and services.